sat.trackr.live / text

‹ back to catalog

STARLINK-4348

NORAD 53075 · 2022-077AJ

PAYLOAD ACTIVE UNKNOWN

§ Identity

Operator
Country
US
Launch date
2022-07-11
Launch site
AFWTR
Launch vehicle
Mass (kg)
RCS (m²)

Purposes: comms

External: N2YO · Heavens-Above · Gunter

§ Orbital elements

Epoch: 2026-09-19T17:15:29.008800Z

Period
93.91 min
Inclination
97.2852°
Eccentricity
0.0001590
Mean motion
15.33435866 rev/d
Perigee alt
464.5 km
Apogee alt
466.7 km
Semi-major
6,843.7 km
B*
4.4059e-5
RAAN
77.5250°
Arg perigee
90.6271°
Mean anomaly
269.5154°
Rev number
23,017

§ Raw data

STARLINK-43481 53075U 22077AJ  26262.71908575  .00001347  00000+0  44059-4 0  99982 53075  97.2852  77.5250 0001590  90.6271 269.5154 15.33435866230170

JSON: /api/v1/satellites/53075 · /tle

For live sub-satellite position, see the globe view (requires WebGL).

§ Visibility from observer

Set your observer location to see the next 7 days of passes ≥ 10°. The values pass through the URL so the page stays shareable.

No JS? Fill the form by hand. The geolocation button needs JavaScript.